Flag Weather past 2 weeks in Olongapo, Philippines

Now
81 °F

Passing clouds.


Feels Like: 85 °F
Forecast: 76 / 89 °F
Wind: No wind

Location: Subic Bay Weather Station

Current Time: Nov 29, 2014 at 7:27:12 AM

Latest Report: Nov 29, 2014 at 6:00 AM


Visibility: N/A

Pressure: 29.80 "Hg

Humidity: 79%

Dew point: 73 °F

Location of OlongapoLocation

Historic Weather in Olongapo — Graph

°F

Olongapo temperature yesterday

Maximum temperature yesterday: 88 °F (at 1:00 PM)
Minimum temperature yesterday: 77 °F (at 12:00 AM)
Average temperature yesterday: 82 °F

Past Weeks' High & Low Weather Summary

 TemperatureHumidityPressure
High91 °F (Nov 17, 2:00 PM)100% (Nov 16, 5:00 AM)29.92 "Hg (Nov 16, 5:00 AM)
Low72 °F (Nov 14, 7:00 AM)46% (Nov 14, 11:00 AM)29.71 "Hg (Nov 26, 3:00 PM)
Average83 °F69%29.82 "Hg
* Reported Nov 14 7:00 AM — Nov 29 6:00 AM, Olongapo, Weather by CustomWeather, © 2014

Note: Actual official high and low records may vary slightly from our data, if they occured in-between our weather recording intervals... More about our weather records

Advertising

Olongapo weather history for previous 24 hours

 ConditionsComfort  
Time TempWeatherWind HumidityBarometerVisibility
6:00 AM
Nov 29
81 °FPassing clouds.No wind79%29.80 "HgN/A
5:00 AM81 °FPassing clouds.1 mph79%29.77 "HgN/A
4:00 AM81 °FPassing clouds.1 mph79%29.77 "HgN/A
3:00 AM81 °FPassing clouds.No wind79%29.80 "HgN/A
2:00 AM81 °FPassing clouds.No wind79%29.80 "HgN/A
1:00 AM81 °FPassing clouds.No wind79%29.80 "HgN/A
12:00 AM82 °FPassing clouds.12 mph74%29.83 "HgN/A
11:00 PM
Nov 28
81 °FPassing clouds.No wind79%29.83 "HgN/A
10:00 PM81 °FPassing clouds.1 mph79%29.83 "HgN/A
9:00 PM81 °FPassing clouds.3 mph79%29.83 "HgN/A
8:00 PM82 °FPassing clouds.2 mph70%29.83 "HgN/A
7:00 PM82 °FPassing clouds.2 mph70%29.83 "HgN/A
6:00 PM82 °FPassing clouds.5 mph66%29.80 "HgN/A
5:00 PM86 °FPartly sunny.5 mph59%29.77 "HgN/A
4:00 PM86 °FPartly sunny.9 mph59%29.74 "HgN/A
3:00 PM86 °FPartly sunny.13 mph62%29.77 "HgN/A
2:00 PM88 °FPartly sunny.14 mph59%29.77 "HgN/A
1:00 PM88 °FPartly sunny.14 mph62%29.80 "HgN/A
12:00 PM86 °FSleet. Partly sunny.14 mph66%29.83 "HgN/A
11:00 AM86 °FPartly sunny.16 mph66%29.83 "HgN/A
10:00 AM84 °FPartly sunny.12 mph70%29.86 "HgN/A
9:00 AM84 °FPartly sunny.7 mph70%29.86 "HgN/A
8:00 AM81 °FPartly sunny.No wind74%29.86 "HgN/A
7:00 AM79 °FPartly sunny.8 mph79%29.83 "HgN/A
Weather by CustomWeather, © 2014

See weather overviewHow to use our weather pages